QPF
0.00 0.00 0.00 0.00 0.00 0.00 0.00 0.00 0.00 0.01 0.01 0.00 0.00 0.00 0.01 0.04 0.09 0.18 0.06 0.00 0.00 0.00 0.00 0.00 0.00 0.00 0.00 0.01 0.00 0.00 0.00 0.00 0.00 0.00 0.00 0.00 0.00 0.00 0.00 0.00 0.00 0.01 0.01 0.00 0.00 0.00 0.00 0.00 0.00
0.00 0.00 0.00 0.00 0.00 0.00 0.00 0.00 0.01 0.00 0.00 0.00 0.00 0.00 0.00 0.03 0.05 0.02 0.00 0.00 0.00 0.00 0.00 0.00 0.00 0.00 0.00 0.00 0.00 0.00 0.00 0.00 0.01 0.01 0.01 0.01 0.01 0.01 0.01 0.01 0.01 0.01 0.01 0.00 0.00 0.00 0.00 0.00 0.00
0.00 0.00 0.00 0.00 0.00 0.00 0.01 0.01 0.01 0.00 0.00 0.00 0.00 0.00 0.00 0.03 0.06 0.01 0.00 0.00 0.00 0.00 0.00 0.00 0.00 0.00 0.00 0.00 0.01 0.01 0.02 0.02 0.02 0.02 0.02 0.01 0.01 0.01 0.01 0.01 0.01 0.01 0.01 0.00 0.00 0.00 0.00 0.00 0.00
0.00 0.00 0.00 0.00 0.00 0.00 0.01 0.01 0.01 0.00 0.00 0.00 0.00 0.00 0.00 0.01 0.01 0.00 0.00 0.00 0.00 0.00 0.00 0.00 0.00 0.00 0.01 0.01 0.02 0.02 0.03 0.03 0.03 0.03 0.02 0.02 0.01 0.01 0.01 0.01 0.01 0.00 0.00 0.00 0.00 0.00 0.00 0.00 0.00
0.00 0.00 0.00 0.00 0.00 0.00 0.00 0.01 0.01 0.00 0.00 0.00 0.00 0.01 0.01 0.00 0.00 0.00 0.00 0.00 0.00 0.00 0.00 0.00 0.00 0.00 0.01 0.01 0.02 0.02 0.02 0.03 0.03 0.03 0.03 0.02 0.01 0.01 0.01 0.01 0.01 0.01 0.00 0.00 0.00 0.00 0.00 0.00 0.01
0.00 0.00 0.00 0.00 0.00 0.00 0.00 0.00 0.00 0.00 0.00 0.00 0.00 0.01 0.02 0.00 0.00 0.00 0.00 0.00 0.00 0.00 0.00 0.00 0.00 0.00 0.01 0.02 0.03 0.03 0.03 0.03 0.04 0.04 0.03 0.02 0.01 0.01 0.01 0.01 0.01 0.00 0.00 0.00 0.00 0.00 0.00 0.00 0.00
0.00 0.00 0.00 0.00 0.00 0.00 0.00 0.01 0.00 0.00 0.00 0.00 0.00 0.01 0.04 0.03 0.00 0.00 0.00 0.00 0.00 0.00 0.00 0.00 0.00 0.00 0.01 0.03 0.03 0.04 0.04 0.05 0.05 0.04 0.02 0.01 0.01 0.01 0.00 0.00 0.00 0.00 0.00 0.00 0.00 0.00 0.00 0.00 0.00
0.00 0.00 0.00 0.00 0.00 0.00 0.01 0.01 0.01 0.00 0.00 0.00 0.00 0.03 0.10 0.07 0.00 0.00 0.00 0.00 0.00 0.00 0.00 0.00 0.00 0.00 0.00 0.00 0.02 0.03 0.06 0.07 0.05 0.03 0.01 0.01 0.00 0.00 0.00 0.00 0.00 0.00 0.00 0.00 0.00 0.00 0.00 0.00 0.00
0.00 0.00 0.00 0.00 0.00 0.00 0.01 0.01 0.01 0.00 0.00 0.00 0.00 0.02 0.09 0.04 0.00 0.00 0.00 0.00 0.00 0.00 0.00 0.00 0.00 0.00 0.00 0.00 0.01 0.02 0.05 0.05 0.03 0.01 0.01 0.00 0.00 0.00 0.00 0.00 0.00 0.00 0.00 0.00 0.00 0.00 0.00 0.00 0.00
0.00 0.00 0.00 0.00 0.00 0.00 0.00 0.01 0.01 0.01 0.00 0.00 0.00 0.01 0.01 0.00 0.00 0.00 0.00 0.00 0.00 0.00 0.00 0.00 0.00 0.00 0.00 0.00 0.00 0.01 0.01 0.01 0.01 0.01 0.00 0.00 0.01 0.02 0.01 0.01 0.00 0.00 0.00 0.00 0.00 0.00 0.00 0.00 0.00
0.00 0.00 0.00 0.00 0.00 0.00 0.00 0.00 0.01 0.01 0.01 0.01 0.00 0.00 0.00 0.00 0.00 0.00 0.00 0.00 0.00 0.00 0.00 0.00 0.00 0.00 0.00 0.01 0.01 0.02 0.03 0.03 0.04 0.05 0.02 0.03 0.03 0.01 0.01 0.01 0.00 0.00 0.00 0.00 0.01 0.00 0.00 0.00 0.00
0.00 0.00 0.00 0.00 0.00 0.00 0.00 0.00 0.00 0.00 0.01 0.01 0.00 0.00 0.00 0.00 0.00 0.00 0.00 0.00 0.00 0.00 0.00 0.00 0.00 0.00 0.00 0.01 0.02 0.02 0.03 0.03 0.04 0.05 0.03 0.04 0.03 0.01 0.01 0.02 0.00 0.00 0.00 0.01 0.02 0.01 0.00 0.00 0.00
0.00 0.00 0.00 0.00 0.00 0.00 0.00 0.00 0.00 0.00 0.00 0.00 0.00 0.00 0.00 0.00 0.00 0.00 0.00 0.00 0.00 0.00 0.00 0.00 0.00 0.00 0.01 0.04 0.03 0.02 0.02 0.02 0.04 0.05 0.04 0.03 0.02 0.01 0.01 0.00 0.01 0.00 0.01 0.01 0.01 0.01 0.00 0.00 0.00
0.00 0.00 0.00 0.00 0.00 0.00 0.00 0.00 0.00 0.00 0.00 0.00 0.00 0.00 0.00 0.00 0.00 0.00 0.02 0.02 0.00 0.00 0.00 0.00 0.00 0.00 0.01 0.02 0.02 0.02 0.01 0.03 0.04 0.04 0.03 0.02 0.02 0.02 0.02 0.02 0.03 0.03 0.03 0.04 0.03 0.02 0.02 0.01 0.00
0.00 0.00 0.00 0.00 0.00 0.00 0.00 0.00 0.00 0.00 0.00 0.00 0.00 0.00 0.00 0.00 0.00 0.00 0.01 0.01 0.00 0.00 0.00 0.00 0.00 0.00 0.01 0.02 0.02 0.02 0.01 0.01 0.03 0.04 0.04 0.03 0.02 0.04 0.03 0.04 0.05 0.05 0.05 0.05 0.04 0.04 0.03 0.02 0.02
0.00 0.00 0.00 0.00 0.00 0.00 0.00 0.00 0.00 0.00 0.00 0.00 0.00 0.00 0.00 0.00 0.00 0.00 0.00 0.00 0.00 0.00 0.00 0.00 0.00 0.00 0.01 0.02 0.02 0.01 0.01 0.03 0.02 0.03 0.05 0.04 0.04 0.05 0.06 0.06 0.07 0.07 0.08 0.09 0.09 0.08 0.07 0.06 0.05
0.00 0.00 0.00 0.00 0.00 0.00 0.00 0.00 0.00 0.00 0.00 0.00 0.00 0.00 0.00 0.00 0.00 0.00 0.00 0.00 0.00 0.00 0.00 0.00 0.00 0.00 0.01 0.02 0.02 0.02 0.02 0.03 0.03 0.04 0.06 0.06 0.06 0.06 0.07 0.08 0.09 0.09 0.11 0.13 0.10 0.12 0.13 0.15 0.14
0.00 0.00 0.00 0.00 0.00 0.00 0.00 0.00 0.00 0.00 0.00 0.00 0.00 0.00 0.00 0.00 0.00 0.01 0.00 0.00 0.00 0.00 0.00 0.00 0.00 0.01 0.02 0.02 0.03 0.04 0.04 0.04 0.05 0.06 0.06 0.06 0.07 0.08 0.10 0.10 0.11 0.13 0.16 0.17 0.16 0.16 0.15 0.17 0.18
0.00 0.00 0.00 0.00 0.00 0.00 0.00 0.01 0.01 0.00 0.00 0.01 0.02 0.01 0.01 0.01 0.01 0.06 0.03 0.01 0.01 0.02 0.02 0.02 0.02 0.02 0.03 0.04 0.05 0.06 0.07 0.07 0.07 0.08 0.07 0.07 0.09 0.12 0.14 0.17 0.19 0.21 0.19 0.18 0.17 0.18 0.20 0.22 0.23
0.00 0.00 0.00 0.00 0.00 0.00 0.00 0.01 0.01 0.00 0.00 0.02 0.07 0.08 0.08 0.08 0.07 0.11 0.06 0.04 0.03 0.04 0.03 0.03 0.03 0.04 0.04 0.06 0.07 0.08 0.09 0.10 0.10 0.10 0.11 0.10 0.12 0.15 0.17 0.19 0.21 0.22 0.20 0.18 0.20 0.23 0.26 0.26 0.26
0.00 0.00 0.00 0.00 0.00 0.00 0.00 0.01 0.01 0.01 0.01 0.02 0.09 0.20 0.21 0.24 0.23 0.12 0.07 0.08 0.07 0.05 0.05 0.05 0.06 0.07 0.08 0.09 0.10 0.11 0.15 0.14 0.13 0.14 0.15 0.14 0.15 0.18 0.19 0.21 0.22 0.21 0.20 0.20 0.23 0.26 0.29 0.30 0.30
0.00 0.00 0.00 0.00 0.01 0.00 0.01 0.04 0.04 0.03 0.02 0.02 0.08 0.14 0.18 0.25 0.26 0.17 0.10 0.08 0.07 0.06 0.07 0.08 0.07 0.08 0.11 0.11 0.12 0.14 0.17 0.17 0.20 0.22 0.24 0.23 0.22 0.23 0.23 0.22 0.20 0.18 0.21 0.25 0.28 0.29 0.31 0.33 0.30
0.00 0.00 0.00 0.00 0.00 0.00 0.00 0.06 0.15 0.08 0.07 0.04 0.03 0.04 0.09 0.10 0.15 0.15 0.10 0.09 0.08 0.07 0.08 0.11 0.11 0.12 0.12 0.13 0.17 0.19 0.21 0.22 0.27 0.27 0.27 0.29 0.32 0.31 0.27 0.24 0.22 0.20 0.18 0.18 0.19 0.24 0.26 0.23 0.18
0.00 0.00 0.00 0.00 0.00 0.00 0.00 0.03 0.17 0.20 0.15 0.06 0.02 0.02 0.03 0.03 0.05 0.05 0.05 0.07 0.07 0.06 0.09 0.12 0.12 0.13 0.15 0.15 0.19 0.25 0.30 0.31 0.30 0.29 0.29 0.31 0.32 0.30 0.27 0.24 0.21 0.18 0.15 0.13 0.12 0.13 0.12 0.11 0.10
0.00 0.00 0.00 0.00 0.00 0.00 0.00 0.04 0.18 0.27 0.14 0.04 0.02 0.01 0.01 0.01 0.02 0.03 0.03 0.04 0.05 0.06 0.09 0.10 0.11 0.11 0.12 0.16 0.19 0.21 0.23 0.30 0.37 0.40 0.44 0.44 0.42 0.37 0.30 0.24 0.21 0.17 0.13 0.10 0.08 0.07 0.07 0.07 0.07
0.00 0.00 0.00 0.00 0.00 0.00 0.01 0.07 0.12 0.11 0.06 0.03 0.02 0.01 0.01 0.02 0.02 0.02 0.03 0.03 0.04 0.05 0.06 0.08 0.09 0.11 0.13 0.16 0.18 0.21 0.24 0.33 0.40 0.40 0.40 0.40 0.37 0.33 0.27 0.21 0.14 0.09 0.07 0.06 0.05 0.05 0.05 0.05 0.05
0.00 0.00 0.00 0.00 0.00 0.02 0.07 0.11 0.11 0.07 0.03 0.03 0.02 0.02 0.02 0.02 0.02 0.02 0.02 0.02 0.03 0.03 0.04 0.04 0.06 0.09 0.11 0.13 0.15 0.16 0.18 0.21 0.25 0.27 0.28 0.27 0.24 0.21 0.15 0.10 0.08 0.07 0.06 0.05 0.05 0.05 0.05 0.04 0.04
0.00 0.00 0.00 0.00 0.01 0.06 0.13 0.13 0.12 0.09 0.05 0.04 0.02 0.02 0.03 0.03 0.02 0.02 0.02 0.03 0.03 0.03 0.04 0.05 0.06 0.08 0.10 0.11 0.10 0.11 0.11 0.12 0.13 0.14 0.16 0.15 0.13 0.11 0.09 0.08 0.07 0.07 0.06 0.06 0.06 0.05 0.04 0.04 0.04
0.00 0.00 0.00 0.00 0.01 0.06 0.17 0.28 0.25 0.18 0.11 0.06 0.03 0.03 0.03 0.02 0.02 0.02 0.03 0.03 0.03 0.03 0.03 0.04 0.06 0.07 0.07 0.06 0.06 0.07 0.07 0.06 0.07 0.08 0.09 0.09 0.08 0.08 0.07 0.07 0.07 0.08 0.08 0.07 0.07 0.07 0.07 0.07 0.08
0.00 0.00 0.00 0.00 0.00 0.02 0.11 0.39 0.43 0.32 0.17 0.08 0.03 0.03 0.03 0.03 0.03 0.03 0.03 0.02 0.02 0.03 0.03 0.03 0.03 0.03 0.03 0.03 0.03 0.03 0.03 0.04 0.05 0.06 0.07 0.08 0.07 0.07 0.07 0.06 0.07 0.08 0.09 0.10 0.10 0.10 0.09 0.09 0.10
MSLP
1009.25 1009.63 1010.04 1010.37 1010.49 1010.36 1009.99 1009.44 1008.82 1008.28 1007.91 1007.77 1007.84 1008.06 1008.34 1008.57 1008.69 1008.67 1008.56 1008.45 1008.42 1008.59 1008.98 1009.60 1010.39 1011.24 1012.06 1012.75 1013.26 1013.61 1013.84 1014.02 1014.24 1014.54 1014.94 1015.42 1015.92 1016.38 1016.74 1016.97 1017.08 1017.10 1017.08 1017.08 1017.13 1017.23 1017.38 1017.54 1017.66
1009.59 1010.04 1010.47 1010.74 1010.74 1010.44 1009.87 1009.11 1008.30 1007.58 1007.08 1006.83 1006.85 1007.06 1007.36 1007.65 1007.86 1007.95 1007.96 1007.96 1008.06 1008.33 1008.82 1009.52 1010.37 1011.27 1012.11 1012.83 1013.37 1013.74 1014.00 1014.21 1014.45 1014.77 1015.18 1015.65 1016.14 1016.58 1016.91 1017.13 1017.23 1017.25 1017.24 1017.26 1017.32 1017.43 1017.57 1017.72 1017.81
1010.01 1010.50 1010.91 1011.10 1010.98 1010.53 1009.79 1008.87 1007.91 1007.06 1006.45 1006.12 1006.08 1006.26 1006.56 1006.88 1007.13 1007.30 1007.40 1007.51 1007.72 1008.09 1008.67 1009.44 1010.34 1011.29 1012.18 1012.93 1013.52 1013.94 1014.24 1014.48 1014.75 1015.07 1015.46 1015.90 1016.35 1016.74 1017.04 1017.24 1017.34 1017.38 1017.42 1017.48 1017.58 1017.72 1017.87 1017.99 1018.05
1010.43 1010.92 1011.27 1011.37 1011.14 1010.57 1009.72 1008.70 1007.66 1006.75 1006.08 1005.70 1005.61 1005.75 1006.02 1006.33 1006.60 1006.81 1006.99 1007.19 1007.48 1007.94 1008.59 1009.42 1010.38 1011.36 1012.29 1013.08 1013.72 1014.19 1014.54 1014.83 1015.12 1015.44 1015.81 1016.20 1016.58 1016.92 1017.18 1017.36 1017.48 1017.57 1017.66 1017.79 1017.95 1018.12 1018.28 1018.38 1018.41
1010.75 1011.19 1011.45 1011.46 1011.14 1010.50 1009.61 1008.58 1007.54 1006.63 1005.96 1005.56 1005.44 1005.53 1005.76 1006.04 1006.31 1006.54 1006.77 1007.03 1007.41 1007.94 1008.65 1009.52 1010.50 1011.50 1012.44 1013.26 1013.93 1014.46 1014.86 1015.20 1015.51 1015.84 1016.18 1016.53 1016.85 1017.14 1017.36 1017.53 1017.67 1017.81 1017.97 1018.17 1018.39 1018.60 1018.77 1018.85 1018.84
1010.89 1011.23 1011.39 1011.30 1010.92 1010.27 1009.40 1008.43 1007.47 1006.64 1006.02 1005.64 1005.51 1005.56 1005.74 1005.98 1006.23 1006.47 1006.73 1007.06 1007.49 1008.08 1008.83 1009.72 1010.69 1011.68 1012.61 1013.43 1014.12 1014.67 1015.12 1015.50 1015.85 1016.19 1016.52 1016.83 1017.11 1017.35 1017.55 1017.72 1017.88 1018.07 1018.29 1018.55 1018.82 1019.06 1019.23 1019.29 1019.24
1010.80 1011.01 1011.05 1010.87 1010.46 1009.84 1009.07 1008.23 1007.41 1006.71 1006.18 1005.86 1005.73 1005.75 1005.88 1006.07 1006.29 1006.54 1006.83 1007.20 1007.69 1008.32 1009.09 1009.97 1010.92 1011.85 1012.74 1013.52 1014.19 1014.76 1015.23 1015.65 1016.03 1016.39 1016.73 1017.03 1017.29 1017.51 1017.68 1017.85 1018.03 1018.25 1018.52 1018.82 1019.12 1019.37 1019.53 1019.57 1019.47
1010.49 1010.56 1010.47 1010.23 1009.82 1009.27 1008.63 1007.96 1007.32 1006.78 1006.37 1006.11 1005.99 1005.99 1006.07 1006.21 1006.40 1006.65 1006.97 1007.39 1007.93 1008.59 1009.37 1010.22 1011.10 1011.96 1012.77 1013.48 1014.11 1014.65 1015.14 1015.59 1016.00 1016.40 1016.76 1017.07 1017.33 1017.53 1017.70 1017.87 1018.05 1018.28 1018.57 1018.88 1019.18 1019.43 1019.57 1019.57 1019.44
1010.04 1009.95 1009.76 1009.46 1009.07 1008.62 1008.13 1007.65 1007.20 1006.83 1006.54 1006.34 1006.23 1006.19 1006.22 1006.31 1006.47 1006.72 1007.07 1007.53 1008.11 1008.80 1009.57 1010.39 1011.20 1011.97 1012.67 1013.30 1013.85 1014.36 1014.84 1015.30 1015.75 1016.18 1016.57 1016.91 1017.19 1017.40 1017.57 1017.73 1017.91 1018.14 1018.41 1018.70 1018.98 1019.20 1019.31 1019.29 1019.14
1009.52 1009.31 1009.03 1008.70 1008.35 1007.99 1007.66 1007.35 1007.08 1006.85 1006.65 1006.50 1006.38 1006.30 1006.27 1006.31 1006.44 1006.68 1007.05 1007.55 1008.17 1008.88 1009.65 1010.42 1011.17 1011.84 1012.44 1012.97 1013.45 1013.91 1014.36 1014.83 1015.30 1015.77 1016.20 1016.57 1016.88 1017.11 1017.29 1017.45 1017.62 1017.83 1018.07 1018.33 1018.57 1018.76 1018.83 1018.78 1018.62
1009.06 1008.75 1008.40 1008.05 1007.74 1007.47 1007.26 1007.09 1006.95 1006.83 1006.69 1006.55 1006.41 1006.27 1006.18 1006.17 1006.26 1006.50 1006.88 1007.41 1008.07 1008.80 1009.57 1010.32 1011.00 1011.61 1012.12 1012.57 1012.98 1013.38 1013.81 1014.26 1014.75 1015.24 1015.70 1016.11 1016.45 1016.71 1016.92 1017.08 1017.25 1017.43 1017.64 1017.87 1018.07 1018.21 1018.26 1018.20 1018.03
1008.74 1008.36 1007.96 1007.61 1007.32 1007.11 1006.98 1006.90 1006.84 1006.76 1006.64 1006.48 1006.29 1006.10 1005.94 1005.87 1005.93 1006.16 1006.55 1007.10 1007.78 1008.54 1009.32 1010.06 1010.73 1011.29 1011.76 1012.16 1012.52 1012.88 1013.27 1013.70 1014.18 1014.68 1015.17 1015.61 1015.99 1016.28 1016.52 1016.70 1016.88 1017.06 1017.24 1017.44 1017.61 1017.73 1017.76 1017.70 1017.55
1008.59 1008.16 1007.74 1007.37 1007.09 1006.90 1006.80 1006.74 1006.69 1006.61 1006.48 1006.28 1006.03 1005.77 1005.56 1005.44 1005.47 1005.68 1006.08 1006.65 1007.35 1008.13 1008.93 1009.70 1010.37 1010.94 1011.41 1011.79 1012.13 1012.46 1012.83 1013.24 1013.70 1014.19 1014.68 1015.14 1015.55 1015.89 1016.16 1016.39 1016.59 1016.78 1016.97 1017.15 1017.31 1017.43 1017.47 1017.42 1017.30
1008.59 1008.14 1007.69 1007.30 1007.00 1006.79 1006.67 1006.58 1006.49 1006.36 1006.17 1005.92 1005.62 1005.32 1005.07 1004.92 1004.93 1005.13 1005.52 1006.10 1006.81 1007.62 1008.45 1009.25 1009.97 1010.58 1011.09 1011.50 1011.86 1012.19 1012.54 1012.93 1013.36 1013.82 1014.30 1014.76 1015.19 1015.57 1015.89 1016.17 1016.41 1016.64 1016.86 1017.06 1017.23 1017.36 1017.43 1017.43 1017.35
1008.67 1008.21 1007.74 1007.32 1006.98 1006.72 1006.52 1006.36 1006.20 1006.00 1005.75 1005.45 1005.12 1004.80 1004.54 1004.39 1004.40 1004.59 1004.98 1005.55 1006.26 1007.07 1007.93 1008.77 1009.55 1010.23 1010.81 1011.29 1011.69 1012.05 1012.39 1012.75 1013.14 1013.56 1014.01 1014.47 1014.91 1015.32 1015.70 1016.04 1016.34 1016.62 1016.87 1017.11 1017.31 1017.48 1017.59 1017.64 1017.63
1008.74 1008.27 1007.78 1007.33 1006.94 1006.62 1006.34 1006.09 1005.84 1005.57 1005.26 1004.93 1004.60 1004.30 1004.07 1003.95 1003.98 1004.18 1004.55 1005.10 1005.79 1006.59 1007.44 1008.31 1009.14 1009.90 1010.56 1011.11 1011.58 1011.97 1012.32 1012.65 1013.00 1013.38 1013.79 1014.23 1014.68 1015.12 1015.54 1015.94 1016.31 1016.64 1016.94 1017.21 1017.46 1017.66 1017.83 1017.94 1018.01
1008.72 1008.24 1007.76 1007.29 1006.87 1006.49 1006.14 1005.81 1005.48 1005.15 1004.82 1004.49 1004.20 1003.96 1003.79 1003.73 1003.80 1004.01 1004.37 1004.87 1005.51 1006.25 1007.07 1007.93 1008.78 1009.58 1010.31 1010.93 1011.45 1011.88 1012.25 1012.57 1012.89 1013.22 1013.60 1014.01 1014.46 1014.92 1015.38 1015.83 1016.25 1016.62 1016.96 1017.26 1017.53 1017.78 1017.99 1018.17 1018.31
1008.54 1008.09 1007.63 1007.19 1006.77 1006.37 1005.98 1005.61 1005.24 1004.89 1004.56 1004.28 1004.06 1003.91 1003.84 1003.86 1003.98 1004.20 1004.53 1004.97 1005.51 1006.16 1006.89 1007.68 1008.50 1009.30 1010.05 1010.72 1011.28 1011.75 1012.13 1012.44 1012.74 1013.05 1013.39 1013.79 1014.23 1014.71 1015.20 1015.68 1016.12 1016.52 1016.87 1017.18 1017.46 1017.72 1017.96 1018.19 1018.41
1008.21 1007.82 1007.44 1007.06 1006.70 1006.34 1005.98 1005.61 1005.25 1004.92 1004.65 1004.44 1004.31 1004.28 1004.32 1004.43 1004.61 1004.84 1005.12 1005.46 1005.88 1006.38 1006.96 1007.63 1008.35 1009.10 1009.82 1010.48 1011.06 1011.55 1011.94 1012.26 1012.55 1012.85 1013.18 1013.57 1014.02 1014.52 1015.02 1015.51 1015.96 1016.35 1016.68 1016.96 1017.21 1017.46 1017.71 1017.98 1018.26
1007.78 1007.49 1007.22 1006.98 1006.74 1006.48 1006.21 1005.92 1005.63 1005.37 1005.17 1005.06 1005.04 1005.12 1005.27 1005.47 1005.70 1005.92 1006.15 1006.38 1006.64 1006.96 1007.35 1007.84 1008.40 1009.02 1009.66 1010.28 1010.84 1011.32 1011.72 1012.05 1012.36 1012.67 1013.02 1013.43 1013.89 1014.39 1014.90 1015.39 1015.82 1016.17 1016.45 1016.68 1016.88 1017.08 1017.31 1017.60 1017.92
1007.33 1007.15 1007.05 1006.98 1006.93 1006.85 1006.74 1006.58 1006.41 1006.26 1006.16 1006.15 1006.24 1006.42 1006.67 1006.94 1007.20 1007.41 1007.57 1007.68 1007.78 1007.90 1008.08 1008.34 1008.71 1009.16 1009.66 1010.18 1010.69 1011.15 1011.55 1011.91 1012.25 1012.60 1012.99 1013.43 1013.92 1014.44 1014.95 1015.42 1015.81 1016.11 1016.32 1016.46 1016.58 1016.72 1016.92 1017.19 1017.53
1006.93 1006.88 1006.96 1007.11 1007.28 1007.43 1007.52 1007.55 1007.54 1007.52 1007.54 1007.63 1007.80 1008.06 1008.37 1008.68 1008.96 1009.15 1009.25 1009.26 1009.21 1009.14 1009.11 1009.15 1009.30 1009.56 1009.91 1010.31 1010.73 1011.16 1011.56 1011.95 1012.34 1012.74 1013.18 1013.67 1014.20 1014.74 1015.25 1015.69 1016.04 1016.27 1016.40 1016.46 1016.50 1016.57 1016.71 1016.95 1017.29
1006.63 1006.71 1006.96 1007.32 1007.74 1008.14 1008.47 1008.71 1008.88 1009.00 1009.13 1009.30 1009.53 1009.83 1010.17 1010.51 1010.79 1010.97 1011.02 1010.96 1010.80 1010.59 1010.38 1010.24 1010.20 1010.27 1010.45 1010.73 1011.07 1011.44 1011.84 1012.26 1012.69 1013.16 1013.66 1014.21 1014.77 1015.33 1015.84 1016.26 1016.56 1016.74 1016.80 1016.79 1016.75 1016.74 1016.82 1017.03 1017.35
1006.46 1006.61 1007.00 1007.56 1008.21 1008.85 1009.42 1009.88 1010.24 1010.50 1010.73 1010.96 1011.23 1011.55 1011.89 1012.22 1012.50 1012.68 1012.72 1012.62 1012.41 1012.12 1011.82 1011.54 1011.36 1011.28 1011.33 1011.49 1011.75 1012.08 1012.46 1012.89 1013.37 1013.89 1014.45 1015.04 1015.64 1016.21 1016.72 1017.12 1017.39 1017.52 1017.53 1017.46 1017.36 1017.30 1017.33 1017.49 1017.79
1006.39 1006.57 1007.05 1007.75 1008.58 1009.43 1010.23 1010.90 1011.44 1011.84 1012.16 1012.44 1012.72 1013.03 1013.35 1013.68 1013.95 1014.14 1014.20 1014.13 1013.94 1013.65 1013.32 1012.99 1012.73 1012.57 1012.52 1012.59 1012.78 1013.06 1013.42 1013.86 1014.36 1014.91 1015.51 1016.13 1016.74 1017.32 1017.82 1018.20 1018.45 1018.55 1018.53 1018.42 1018.29 1018.20 1018.20 1018.32 1018.57
1006.38 1006.53 1007.04 1007.82 1008.79 1009.81 1010.80 1011.66 1012.37 1012.90 1013.31 1013.63 1013.92 1014.20 1014.50 1014.80 1015.08 1015.29 1015.41 1015.41 1015.30 1015.08 1014.80 1014.51 1014.25 1014.05 1013.96 1013.98 1014.11 1014.35 1014.69 1015.11 1015.61 1016.16 1016.77 1017.39 1018.00 1018.56 1019.04 1019.40 1019.63 1019.71 1019.68 1019.57 1019.43 1019.33 1019.30 1019.39 1019.60
1006.41 1006.48 1006.96 1007.77 1008.82 1009.97 1011.11 1012.14 1013.00 1013.67 1014.16 1014.53 1014.82 1015.09 1015.36 1015.64 1015.92 1016.17 1016.37 1016.47 1016.48 1016.39 1016.22 1016.02 1015.82 1015.66 1015.56 1015.56 1015.66 1015.86 1016.16 1016.55 1017.02 1017.55 1018.12 1018.71 1019.28 1019.81 1020.26 1020.59 1020.80 1020.88 1020.85 1020.75 1020.62 1020.51 1020.47 1020.53 1020.69
1006.45 1006.43 1006.84 1007.64 1008.72 1009.96 1011.23 1012.41 1013.42 1014.21 1014.80 1015.23 1015.54 1015.79 1016.04 1016.30 1016.59 1016.88 1017.14 1017.36 1017.50 1017.56 1017.54 1017.47 1017.37 1017.28 1017.22 1017.22 1017.30 1017.47 1017.73 1018.07 1018.49 1018.96 1019.47 1020.00 1020.51 1020.98 1021.37 1021.67 1021.85 1021.93 1021.91 1021.82 1021.71 1021.61 1021.55 1021.58 1021.68
1006.52 1006.42 1006.77 1007.53 1008.62 1009.92 1011.29 1012.60 1013.75 1014.67 1015.37 1015.86 1016.21 1016.46 1016.69 1016.94 1017.21 1017.52 1017.85 1018.15 1018.42 1018.62 1018.75 1018.81 1018.82 1018.81 1018.80 1018.83 1018.90 1019.04 1019.26 1019.54 1019.88 1020.28 1020.71 1021.16 1021.58 1021.98 1022.31 1022.56 1022.71 1022.78 1022.76 1022.69 1022.58 1022.48 1022.41 1022.39 1022.43
1006.68 1006.52 1006.82 1007.55 1008.64 1009.98 1011.42 1012.84 1014.12 1015.18 1015.99 1016.57 1016.96 1017.23 1017.45 1017.67 1017.93 1018.23 1018.58 1018.93 1019.28 1019.58 1019.82 1020.00 1020.11 1020.18 1020.22 1020.27 1020.35 1020.46 1020.63 1020.85 1021.12 1021.43 1021.77 1022.12 1022.46 1022.77 1023.03 1023.23 1023.35 1023.40 1023.38 1023.31 1023.21 1023.10 1023.00 1022.93 1022.91
Thickness
5801 5810 5815 5809 5793 5787 5792 5812 5816 5814 5820 5835 5844 5836 5825 5812 5794 5779 5816 5836 5832 5822 5813 5806 5802 5797 5792 5787 5783 5779 5776 5773 5771 5768 5766 5764 5762 5760 5758 5757 5755 5754 5753 5752 5751 5750 5749 5748 5747
5799 5807 5806 5795 5776 5772 5791 5808 5803 5814 5830 5843 5847 5842 5829 5814 5816 5816 5826 5832 5829 5819 5811 5805 5799 5794 5789 5784 5780 5776 5773 5770 5767 5765 5762 5760 5759 5757 5755 5753 5752 5751 5750 5749 5748 5747 5746 5745 5744
5795 5800 5787 5780 5773 5776 5788 5796 5801 5820 5838 5843 5841 5843 5830 5816 5818 5824 5831 5833 5827 5817 5810 5801 5796 5791 5786 5781 5777 5774 5770 5767 5764 5762 5759 5757 5756 5754 5752 5751 5749 5748 5747 5746 5745 5744 5743 5742 5741
5789 5788 5782 5772 5772 5795 5804 5797 5799 5810 5829 5841 5839 5829 5828 5835 5833 5835 5835 5833 5824 5815 5806 5797 5793 5788 5783 5778 5774 5771 5768 5765 5762 5759 5757 5755 5753 5751 5750 5748 5746 5745 5744 5743 5742 5741 5740 5739 5739
5784 5773 5763 5763 5778 5800 5814 5807 5801 5797 5814 5831 5833 5818 5813 5832 5841 5838 5834 5830 5821 5813 5802 5793 5788 5784 5780 5775 5771 5768 5765 5762 5760 5757 5755 5753 5751 5749 5748 5746 5744 5743 5742 5741 5740 5739 5738 5737 5736
5766 5765 5750 5756 5778 5801 5814 5810 5802 5799 5812 5828 5829 5815 5810 5829 5832 5832 5833 5827 5822 5811 5799 5788 5784 5781 5776 5772 5768 5765 5763 5760 5758 5755 5753 5751 5749 5747 5745 5744 5742 5741 5740 5739 5738 5737 5736 5735 5735
5755 5754 5752 5763 5776 5795 5815 5815 5804 5808 5815 5826 5832 5812 5806 5816 5826 5830 5829 5825 5819 5808 5796 5787 5781 5777 5773 5769 5766 5763 5761 5758 5756 5753 5751 5749 5747 5746 5744 5742 5741 5740 5738 5737 5737 5736 5735 5734 5733
5763 5752 5750 5763 5773 5789 5816 5815 5814 5813 5816 5834 5832 5807 5790 5803 5822 5826 5824 5819 5813 5805 5794 5787 5781 5776 5771 5766 5763 5760 5759 5756 5754 5752 5750 5748 5746 5745 5743 5741 5740 5738 5737 5737 5736 5735 5734 5733 5732
5760 5740 5742 5760 5773 5791 5812 5805 5804 5815 5817 5825 5829 5816 5809 5816 5819 5816 5813 5809 5805 5800 5792 5787 5782 5776 5772 5767 5761 5758 5757 5755 5753 5750 5748 5747 5746 5745 5743 5742 5739 5738 5737 5736 5735 5734 5734 5732 5732
5747 5733 5748 5770 5784 5795 5805 5801 5793 5792 5799 5808 5816 5814 5818 5818 5814 5809 5806 5802 5798 5794 5791 5788 5784 5778 5775 5770 5761 5758 5757 5754 5753 5751 5749 5748 5749 5748 5747 5743 5740 5738 5737 5736 5735 5734 5734 5733 5732
5744 5740 5756 5770 5785 5794 5794 5796 5798 5787 5782 5797 5805 5809 5811 5812 5811 5809 5806 5803 5799 5795 5791 5790 5786 5781 5778 5773 5764 5762 5760 5756 5754 5753 5751 5750 5750 5750 5747 5743 5740 5738 5737 5736 5735 5734 5734 5735 5736
5742 5748 5757 5765 5779 5783 5786 5789 5788 5791 5795 5812 5816 5816 5809 5808 5809 5809 5807 5804 5801 5796 5792 5791 5787 5782 5780 5775 5769 5766 5764 5759 5758 5755 5752 5752 5751 5751 5750 5746 5743 5742 5740 5739 5738 5737 5738 5738 5738
5739 5746 5755 5763 5769 5774 5778 5780 5783 5790 5805 5814 5813 5813 5808 5809 5811 5813 5813 5808 5803 5797 5794 5792 5789 5783 5780 5776 5771 5768 5766 5763 5761 5758 5754 5753 5752 5751 5751 5749 5747 5746 5744 5742 5740 5740 5740 5738 5737
5740 5746 5750 5754 5759 5764 5763 5770 5775 5784 5800 5803 5804 5805 5810 5812 5813 5812 5809 5802 5801 5798 5794 5793 5789 5783 5779 5775 5772 5770 5768 5765 5763 5760 5756 5754 5752 5751 5750 5748 5746 5744 5743 5741 5740 5739 5737 5736 5734
5735 5730 5734 5745 5752 5758 5757 5753 5767 5785 5793 5794 5798 5803 5807 5811 5815 5812 5809 5805 5803 5798 5795 5791 5788 5783 5778 5774 5770 5769 5768 5765 5763 5761 5758 5754 5752 5750 5748 5746 5743 5741 5740 5738 5736 5735 5733 5732 5731
5722 5715 5713 5736 5749 5755 5746 5739 5772 5790 5787 5787 5794 5800 5803 5808 5813 5815 5813 5809 5806 5800 5794 5790 5788 5782 5777 5773 5770 5769 5767 5766 5763 5761 5758 5754 5751 5749 5746 5743 5741 5739 5736 5734 5731 5730 5727 5725 5724
5706 5703 5713 5736 5757 5756 5747 5745 5773 5794 5791 5786 5791 5797 5801 5805 5808 5812 5811 5808 5805 5799 5793 5787 5785 5781 5775 5771 5768 5767 5765 5764 5762 5760 5756 5753 5749 5746 5743 5740 5738 5736 5733 5730 5727 5726 5722 5718 5716
5705 5717 5725 5738 5759 5754 5747 5751 5770 5789 5791 5786 5788 5793 5798 5797 5800 5805 5804 5804 5801 5795 5790 5785 5781 5778 5773 5769 5765 5763 5762 5761 5759 5757 5754 5750 5747 5743 5740 5737 5735 5733 5729 5725 5722 5719 5717 5713 5710
5715 5717 5727 5748 5762 5750 5745 5748 5760 5776 5779 5779 5783 5785 5786 5788 5794 5795 5793 5794 5791 5786 5782 5779 5775 5773 5769 5765 5760 5756 5754 5754 5753 5752 5750 5746 5743 5739 5736 5734 5732 5729 5724 5721 5717 5714 5710 5706 5704
5711 5712 5720 5737 5751 5746 5741 5744 5755 5765 5763 5762 5765 5767 5771 5773 5776 5776 5778 5779 5779 5776 5774 5772 5769 5768 5765 5763 5759 5756 5753 5751 5751 5749 5746 5743 5739 5735 5732 5729 5727 5724 5719 5716 5712 5708 5704 5700 5696
5704 5708 5716 5725 5739 5743 5735 5730 5742 5751 5753 5752 5754 5753 5750 5748 5751 5755 5760 5763 5765 5764 5764 5765 5763 5763 5761 5760 5757 5753 5750 5747 5745 5742 5740 5737 5733 5729 5725 5723 5721 5718 5715 5710 5706 5704 5700 5693 5690
5696 5718 5720 5721 5719 5721 5728 5708 5723 5734 5732 5734 5734 5734 5732 5729 5733 5737 5741 5747 5750 5753 5755 5756 5756 5755 5755 5754 5751 5746 5741 5737 5737 5735 5732 5729 5726 5721 5719 5715 5712 5711 5709 5702 5698 5697 5695 5691 5686
5707 5723 5720 5720 5718 5716 5724 5710 5709 5721 5714 5715 5718 5719 5718 5717 5718 5721 5726 5731 5735 5741 5745 5746 5746 5746 5746 5746 5744 5740 5735 5733 5730 5727 5723 5718 5715 5711 5709 5705 5701 5699 5697 5695 5692 5689 5687 5685 5681
5715 5715 5715 5716 5715 5698 5716 5712 5694 5704 5703 5703 5706 5705 5705 5707 5708 5710 5714 5717 5721 5727 5731 5732 5732 5733 5735 5734 5733 5730 5727 5723 5719 5715 5711 5706 5700 5696 5695 5693 5688 5686 5684 5683 5681 5678 5675 5673 5671
5706 5694 5685 5686 5691 5700 5727 5715 5685 5694 5699 5698 5694 5693 5694 5696 5696 5697 5699 5702 5705 5710 5714 5716 5718 5717 5718 5719 5718 5717 5715 5713 5708 5703 5698 5694 5687 5681 5680 5678 5675 5672 5670 5668 5667 5664 5660 5658 5655
5699 5697 5683 5678 5687 5711 5728 5704 5683 5693 5694 5692 5689 5686 5685 5684 5684 5684 5685 5687 5690 5693 5697 5701 5702 5701 5702 5702 5701 5699 5700 5698 5692 5687 5682 5677 5671 5667 5665 5663 5660 5657 5655 5653 5650 5648 5645 5642 5639
5700 5701 5710 5694 5689 5687 5694 5682 5677 5688 5685 5683 5679 5676 5674 5672 5672 5672 5673 5675 5676 5678 5680 5682 5684 5684 5684 5683 5683 5681 5681 5679 5674 5668 5664 5658 5654 5650 5649 5647 5644 5641 5639 5636 5634 5630 5628 5625 5622
5715 5713 5705 5695 5673 5664 5672 5678 5671 5672 5673 5672 5668 5665 5663 5662 5661 5661 5662 5662 5663 5663 5664 5665 5666 5666 5664 5665 5665 5663 5662 5660 5655 5652 5645 5640 5636 5635 5632 5629 5627 5624 5621 5618 5616 5612 5609 5607 5604
5705 5707 5707 5707 5695 5669 5650 5658 5678 5671 5667 5661 5657 5654 5653 5651 5650 5649 5650 5650 5650 5650 5650 5651 5650 5649 5649 5649 5648 5646 5643 5641 5638 5634 5629 5625 5621 5619 5616 5613 5610 5607 5604 5600 5597 5595 5591 5590 5587
5712 5711 5709 5693 5692 5694 5670 5648 5663 5660 5657 5652 5647 5644 5641 5640 5639 5639 5638 5638 5637 5636 5636 5635 5635 5635 5634 5633 5631 5629 5627 5624 5621 5616 5612 5609 5606 5603 5599 5597 5593 5590 5587 5584 5581 5579 5575 5573 5571